Location: Dark Ridge Observatory
(32.8036°N, 105.4750°W)
Time: 04:23:30
(UTC-07:00)

N. Korean satellite - Visible Passes

Search period start: 24 November 2017 00:00
Search period end: 04 December 2017 00:00
Orbit: 460 x 514 km, 97.2° (Epoch: 23 November)

Date Brightness Start Highest point End Pass type
(mag) Time Alt. Az. Time Alt. Az. Time Alt. Az.
24 Nov 7.5 17:33:17 10° SE 17:36:13 25° ENE 17:39:12 10° NNE visible
24 Nov 9.9 19:08:06 10° WSW 19:09:44 13° W 19:11:23 10° WNW visible
25 Nov 8.7 18:43:06 10° SSW 18:46:06 27° W 18:49:10 10° NW visible
26 Nov 8.9 06:14:15 10° NE 06:17:37 31° E 06:20:57 10° SSE visible
26 Nov 7.0 18:19:06 10° S 18:22:33 61° W 18:26:06 10° NNW visible
27 Nov 9.9 05:51:46 10° ENE 05:54:01 15° E 05:56:15 10° SE visible
27 Nov 6.5 17:55:38 10° SSE 17:59:05 56° ENE 18:02:37 10° N visible
28 Nov 7.5 17:32:43 10° SE 17:35:41 26° ENE 17:38:42 10° NNE visible
28 Nov 9.9 19:07:28 10° WSW 19:09:12 13° W 19:10:57 10° WNW visible
29 Nov 8.7 18:42:30 10° SSW 18:45:33 27° W 18:48:40 10° NW visible
30 Nov 8.9 06:13:44 10° NE 06:17:05 30° E 06:20:23 10° SSE visible
30 Nov 7.0 18:18:29 10° S 18:21:59 62° W 18:25:34 10° NNW visible
01 Dec 9.9 05:51:14 10° ENE 05:53:27 15° E 05:55:39 10° SE visible
01 Dec 6.6 17:55:01 10° SSE 17:58:30 56° ENE 18:02:03 10° N visible
02 Dec 7.6 17:32:04 10° SE 17:35:04 26° ENE 17:38:08 10° NNE visible
02 Dec 9.9 19:06:46 10° SW 19:08:35 13° W 19:10:25 10° WNW visible
03 Dec 8.7 18:41:49 10° SSW 18:44:55 28° W 18:48:05 10° NW visible
